Location: Peebles
(55.6412°N, 3.1714°W)
Time: 20:46:16
(UTC+01:00)

A-11 Canister half - Visible Passes

Search period start: 02 October 2022 00:00
Search period end: 12 October 2022 00:00
Orbit: 1524 x 1684 km, 47.3° (Epoch: 02 October)

Date Brightness Start Highest point End Pass type
(mag) Time Alt. Az. Time Alt. Az. Time Alt. Az.
02 Oct 9.5 20:47:21 10° W 20:56:11 47° SSW 21:01:46 24° SE visible
02 Oct 10.1 22:52:06 10° W 22:59:34 27° SW 23:00:02 27° SW visible
03 Oct 9.5 20:25:42 10° W 20:34:32 48° SSW 20:41:07 20° SE visible
03 Oct 10.0 22:30:24 10° W 22:37:58 28° SW 22:39:24 27° SSW visible
04 Oct 9.5 20:04:03 10° W 20:12:54 48° SSW 20:20:32 15° SE visible
04 Oct 10.0 22:08:42 10° W 22:16:21 29° SW 22:18:49 26° SSW visible
05 Oct 9.6 19:42:25 10° W 19:51:15 49° SSW 19:59:58 11° ESE visible
05 Oct 10.1 21:47:01 10° W 21:54:45 30° SW 21:58:16 24° S visible
06 Oct 9.6 19:20:46 10° W 19:29:36 49° SSW 19:38:40 10° ESE visible
06 Oct 10.1 21:25:20 10° W 21:33:08 31° SW 21:37:46 21° S visible
06 Oct 10.9 23:34:44 10° WSW 23:35:34 10° SW 23:36:04 10° SW visible
07 Oct 9.6 18:59:08 10° W 19:07:58 50° S 19:17:02 10° ESE visible
07 Oct 10.1 21:03:38 10° W 21:11:31 31° SSW 21:17:19 17° SSE visible
07 Oct 10.9 23:11:51 10° WSW 23:14:01 11° SW 23:15:37 10° SW visible
08 Oct 10.1 20:41:57 10° W 20:49:55 32° SSW 20:56:56 14° SSE visible
08 Oct 10.9 22:49:33 10° WSW 22:52:27 12° SW 22:55:15 10° SW visible
09 Oct 10.1 20:20:18 10° W 20:28:18 33° SSW 20:36:30 10° SSE visible
09 Oct 10.9 22:27:26 10° WSW 22:30:54 12° SW 22:34:24 10° SSW visible
10 Oct 10.1 19:58:37 10° W 20:06:41 34° SSW 20:14:56 10° SSE visible
10 Oct 10.9 22:05:24 10° WSW 22:09:20 13° SW 22:13:18 10° SSW visible
11 Oct 10.2 19:36:56 10° W 19:45:05 35° SSW 19:53:23 10° SSE visible
11 Oct 10.9 21:43:27 10° W 21:47:46 14° SW 21:52:09 10° SSW visible
